Barcelona, Spain

7:05 PM CEST on August 14, 2018 (GMT +0200)
El Prat

Weather History for LEBL - February, 2018

Change the Weather History Date:

Sunday, February 11, 2018

  Actual Average Record
Temperature  
Mean Temperature 47 °F -  
Max Temperature 58 °F 56 °F 62 °F (2000)
Min Temperature 36 °F 42 °F 35 °F (1999)
Degree Days  
Heating Degree Days 18    
Moisture  
Dew Point 34 °F    
Average Humidity 58    
Maximum Humidity 82    
Minimum Humidity 30    
Precipitation  
Precipitation 0.00 in 0.05 in - ()
Sea Level Pressure  
Sea Level Pressure 30.00 in    
Wind  
Wind Speed 11 mph ()    
Max Wind Speed 20 mph    
Max Gust Speed -    
Visibility 18.2 miles    
Events      
Averages and records for this station are not official NWS values.
T = Trace of Precipitation, MM = Missing Value Source: Averaged Metar Reports

Daily Weather History Graph

Daily Weather History Graph

Search for Another Location

Airport or City:

Astronomy

Feb. 11, 2018 Rise Set
Actual Time 7:51 AM CET 6:20 PM CET
Civil Twilight 7:23 AM CET 6:49 PM CET
Nautical Twilight 6:50 AM CET 7:21 PM CET
Astronomical Twilight 6:18 AM CET 7:53 PM CET
Moon 4:43 AM CET (2/11) 2:33 PM CET (2/11)
Length of Visible Light 11h 25m
Length of Day
10h 28m
Waning Crescent, 17% of the Moon is Illuminated
Feb 11
Waning Crescent
Feb 15
New
Feb 23
First Quarter
Mar 2
Full
Mar 9
Last Quarter

Hourly Weather History & Observations

Time (CET) Temp. Windchill Dew Point Humidity Pressure Visibility Wind Dir Wind Speed Gust Speed Precip Events Conditions
12:00 AM 39.2 °F 32.0 °F 23.0 °F 52% 30.06 in - WNW 11.5 mph - N/A   Clear
12:30 AM 39.2 °F 32.5 °F 21.2 °F 49% 30.06 in - NW 10.4 mph - N/A   Clear
1:00 AM 39 °F - 22 °F 37% 30.07 in 19 mi North 9.2 mph - -   Clear
1:00 AM 37.4 °F 29.3 °F 21.2 °F 52% 30.06 in - NW 12.7 mph - N/A   Clear
1:30 AM 37.4 °F 28.9 °F 21.2 °F 52% 30.06 in - NNW 13.8 mph - N/A   Clear
2:00 AM 38 °F - 20 °F 35% 30.06 in 19 mi North 12.7 mph - -  
2:00 AM 37.4 °F 28.5 °F 19.4 °F 48% 30.04 in - NNW 15.0 mph - N/A   Clear
2:30 AM 37.4 °F 30.3 °F 19.4 °F 48% 30.04 in - NNW 10.4 mph - N/A   Clear
3:00 AM 39 °F - 19 °F 30% 30.06 in 19 mi North 11.5 mph - -  
3:00 AM 37.4 °F 29.3 °F 17.6 °F 45% 30.04 in - NNW 12.7 mph - N/A   Clear
3:30 AM 37.4 °F 29.8 °F 19.4 °F 48% 30.04 in - NNW 11.5 mph - N/A   Clear
4:00 AM 37 °F - 19 °F 35% 30.05 in 19 mi North 10.4 mph - -   Scattered Clouds
4:00 AM 37.4 °F 29.8 °F 19.4 °F 48% 30.04 in - NW 11.5 mph - N/A   Clear
4:30 AM 37.4 °F 29.8 °F 19.4 °F 48% 30.04 in - NW 11.5 mph - N/A   Clear
5:00 AM 36 °F - 20 °F 40% 30.05 in 19 mi North 11.5 mph - -  
5:00 AM 35.6 °F 28.0 °F 21.2 °F 56% 30.04 in - NW 10.4 mph - N/A   Clear
5:30 AM 37.4 °F 29.8 °F 21.2 °F 52% 30.04 in - NNW 11.5 mph - N/A   Clear
6:00 AM 37 °F - 22 °F 41% 30.04 in 19 mi North 12.7 mph - -  
6:00 AM 35.6 °F 28.0 °F 21.2 °F 56% 30.04 in - NNW 10.4 mph - N/A   Clear
6:30 AM 37.4 °F 30.3 °F 23.0 °F 56% 30.04 in - NNW 10.4 mph - N/A   Clear
7:00 AM 37 °F - 24 °F 46% 30.04 in 19 mi North 12.7 mph - -   Scattered Clouds
7:00 AM 37.4 °F 30.3 °F 23.0 °F 56% 30.04 in - NNW 10.4 mph - N/A   Clear
7:30 AM 37.4 °F 28.9 °F 23.0 °F 56% 30.04 in - NNW 13.8 mph - N/A   Clear
8:00 AM 38 °F - 26 °F 51% 30.06 in 19 mi North 11.5 mph - -  
8:00 AM 37.4 °F 28.2 °F 26.6 °F 65% 30.04 in - NW 16.1 mph - N/A   Clear
8:30 AM 37.4 °F 28.9 °F 26.6 °F 65% 30.04 in - NW 13.8 mph - N/A   Clear
9:00 AM 39.2 °F 31.2 °F 26.6 °F 61% 30.04 in - NW 13.8 mph - N/A   Clear
9:30 AM 41.0 °F 33.9 °F 28.4 °F 61% 30.04 in - NNW 12.7 mph - N/A   Clear
10:00 AM 43 °F - 29 °F 46% 30.06 in 25 mi North 10.4 mph - -   Mostly Cloudy
10:00 AM 42.8 °F 37.0 °F 28.4 °F 57% 30.04 in - NNW 10.4 mph - N/A   Clear
10:30 AM 44.6 °F 38.8 °F 30.2 °F 57% 30.04 in - NW 11.5 mph - N/A   Clear
11:00 AM 47 °F - 30 °F 40% 30.06 in 19 mi North 10.4 mph - -  
11:00 AM 46.4 °F 41.9 °F 30.2 °F 53% 30.06 in - NNW 9.2 mph - N/A   Clear
11:30 AM 48.2 °F - 30.2 °F 50% 30.04 in - NW 9.2 mph - N/A   Clear
12:00 PM 52 °F - 33 °F 36% 30.05 in 19 mi NNW 2.3 mph - -  
12:00 PM 50.0 °F - 32.0 °F 50% 30.04 in - WNW 5.8 mph - N/A   Clear
12:30 PM 53.6 °F - 33.8 °F 47% 30.01 in - WNW 4.6 mph - N/A   Clear
1:00 PM 54 °F - 38 °F 43% 30.02 in 19 mi WSW 13.8 mph - -   Partly Cloudy
1:00 PM 53.6 °F - 37.4 °F 54% 30.01 in - WSW 10.4 mph - N/A   Clear
1:30 PM 53.6 °F - 41.0 °F 62% 29.98 in - WSW 15.0 mph - N/A   Clear
2:00 PM 57 °F - 43 °F 50% 29.99 in 19 mi WSW 18.4 mph - -  
2:00 PM 55.4 °F - 42.8 °F 63% 29.98 in - WSW 15.0 mph - N/A   Clear
2:30 PM 55.4 °F - 44.6 °F 67% 29.98 in - SW 16.1 mph - N/A   Clear
3:00 PM 58 °F - 46 °F 53% 29.96 in 19 mi WSW 19.6 mph - -  
3:00 PM 55.4 °F - 44.6 °F 67% 29.95 in - SW 17.3 mph - N/A   Clear
3:30 PM 57.2 °F - 44.6 °F 63% 29.95 in - SW 19.6 mph - N/A   Clear
4:00 PM 59 °F - 47 °F 54% 29.95 in 25 mi WSW 18.4 mph - -   Partly Cloudy
4:00 PM 57.2 °F - 46.4 °F 67% 29.95 in - SW 19.6 mph - N/A   Clear
4:30 PM 57.2 °F - 46.4 °F 67% 29.95 in - SW 18.4 mph - N/A   Clear
5:00 PM 57 °F - 48 °F 62% 29.95 in 19 mi WSW 16.1 mph - -  
5:00 PM 55.4 °F - 48.2 °F 77% 29.95 in - SW 17.3 mph - N/A   Clear
5:30 PM 55.4 °F - 48.2 °F 77% 29.95 in - SW 19.6 mph - N/A   Clear
6:00 PM 56 °F - 49 °F 71% 29.94 in 15 mi WSW 17.3 mph - -  
6:00 PM 55.4 °F - 48.2 °F 77% 29.92 in - SW 18.4 mph - N/A   Clear
6:30 PM 53.6 °F - 48.2 °F 82% 29.95 in - SW 17.3 mph - N/A   Clear
7:00 PM 55 °F - 47 °F 67% 29.95 in 19 mi WSW 16.1 mph - -   Partly Cloudy
7:00 PM 55.4 °F - 46.4 °F 72% 29.95 in - WSW 18.4 mph - N/A   Clear
7:30 PM 53.6 °F - 46.4 °F 77% 29.95 in - WSW 11.5 mph - N/A   Clear
8:00 PM 56 °F - 48 °F 66% 29.95 in 19 mi WSW 13.8 mph - -  
8:00 PM 55.4 °F - 46.4 °F 72% 29.95 in - WSW 15.0 mph - N/A   Clear
8:30 PM 55.4 °F - 48.2 °F 77% 29.92 in - SW 13.8 mph - N/A   Clear
9:00 PM 56 °F - 48 °F 66% 29.94 in 16 mi SW 11.5 mph - -  
9:00 PM 55.4 °F - 48.2 °F 77% 29.92 in - SW 12.7 mph - N/A   Clear
10:00 PM 55.4 °F - 50.0 °F 82% 29.92 in - SW 9.2 mph - N/A   Clear
10:30 PM 53.6 °F - 48.2 °F 82% 29.92 in - WSW 4.6 mph - N/A   Clear
11:00 PM 54 °F - 48 °F 75% 29.94 in 11 mi North 2.3 mph - -  
11:00 PM 53.6 °F - 48.2 °F 82% 29.92 in - Variable 2.3 mph - N/A   Clear
11:30 PM 53.6 °F - 48.2 °F 82% 29.95 in - Variable 1.2 mph - N/A   Clear